Temp
-13 -12 -12 -13 -13 -13 -13 -13 -13 -14 -14 -14 -14 -14 -15 -15 -15 -15 -15 -14 -14 -14 -14 -14 -14 -14 -14 -14 -14 -14 -14 -14 -14 -13 -13 -13 -13 -13 -13 -13 -12 -13 -12
-13 -13 -13 -13 -13 -13 -13 -13 -14 -14 -14 -14 -14 -14 -15 -15 -15 -15 -15 -15 -15 -15 -14 -14 -14 -14 -14 -14 -14 -14 -14 -14 -14 -14 -14 -13 -13 -13 -13 -13 -13 -13 -13
-14 -14 -14 -14 -14 -14 -14 -14 -14 -14 -14 -14 -14 -14 -15 -15 -15 -15 -15 -15 -15 -15 -15 -15 -15 -15 -15 -14 -14 -14 -14 -14 -14 -15 -14 -14 -14 -13 -13 -13 -13 -13 -13
-14 -14 -14 -14 -14 -14 -14 -14 -14 -14 -14 -15 -15 -15 -15 -15 -15 -15 -15 -15 -15 -15 -15 -15 -15 -15 -15 -15 -15 -14 -14 -14 -15 -15 -15 -15 -14 -14 -14 -13 -13 -13 -13
-15 -15 -15 -14 -14 -14 -14 -14 -15 -15 -15 -15 -15 -15 -15 -15 -15 -15 -15 -15 -15 -15 -15 -15 -15 -15 -15 -15 -15 -15 -15 -15 -15 -14 -15 -15 -15 -15 -14 -14 -14 -13 -14
-15 -15 -15 -15 -15 -15 -15 -15 -15 -15 -15 -15 -15 -15 -16 -16 -16 -16 -16 -16 -15 -15 -15 -15 -15 -15 -15 -15 -15 -15 -15 -15 -15 -15 -14 -14 -14 -15 -15 -15 -15 -14 -13
-15 -15 -15 -15 -15 -15 -15 -15 -15 -16 -16 -16 -16 -16 -16 -15 -15 -15 -15 -15 -15 -15 -15 -15 -15 -15 -15 -15 -15 -15 -15 -15 -15 -15 -15 -15 -14 -14 -14 -15 -15 -15 -15
-16 -16 -16 -16 -16 -16 -16 -16 -16 -16 -16 -16 -16 -16 -16 -16 -16 -16 -16 -16 -16 -16 -16 -16 -15 -15 -15 -15 -15 -15 -15 -15 -15 -15 -15 -15 -15 -15 -15 -15 -15 -15 -15
-17 -16 -16 -16 -16 -16 -16 -17 -16 -16 -16 -16 -16 -16 -16 -16 -16 -16 -16 -16 -16 -15 -15 -16 -16 -16 -15 -16 -16 -16 -16 -16 -15 -15 -15 -15 -15 -15 -15 -15 -15 -15 -15
-17 -17 -17 -17 -17 -16 -16 -16 -16 -16 -16 -16 -16 -17 -17 -17 -17 -17 -17 -17 -17 -17 -17 -17 -17 -16 -16 -16 -16 -16 -16 -16 -16 -16 -16 -16 -16 -16 -16 -16 -15 -15 -15
-17 -17 -17 -17 -17 -17 -17 -17 -17 -17 -17 -17 -17 -17 -17 -17 -17 -18 -18 -18 -18 -18 -18 -18 -18 -18 -18 -18 -18 -18 -17 -18 -18 -17 -17 -18 -17 -17 -17 -16 -16 -16 -16
-18 -18 -18 -18 -18 -18 -18 -18 -17 -18 -17 -17 -17 -18 -18 -18 -18 -18 -19 -19 -19 -19 -20 -20 -20 -19 -19 -19 -19 -18 -18 -18 -18 -19 -18 -19 -19 -19 -19 -18 -17 -17 -16
-19 -19 -19 -19 -19 -18 -18 -19 -19 -20 -19 -20 -20 -20 -20 -20 -20 -20 -21 -21 -21 -22 -22 -22 -22 -22 -21 -21 -21 -20 -20 -20 -20 -20 -20 -20 -20 -20 -20 -19 -19 -19 -18
-19 -19 -19 -19 -19 -20 -20 -21 -21 -22 -22 -21 -21 -22 -22 -22 -23 -23 -23 -24 -24 -24 -23 -23 -23 -23 -22 -22 -22 -22 -21 -21 -21 -21 -21 -21 -21 -21 -21 -21 -21 -21 -20
-19 -20 -20 -20 -21 -22 -22 -22 -22 -22 -23 -23 -23 -24 -24 -25 -25 -25 -25 -25 -24 -24 -24 -24 -24 -23 -23 -23 -23 -23 -23 -23 -23 -23 -23 -23 -23 -23 -23 -22 -22 -22 -22
-21 -21 -21 -22 -22 -23 -23 -24 -25 -25 -25 -25 -25 -25 -26 -26 -26 -26 -26 -26 -25 -25 -25 -25 -25 -25 -25 -25 -25 -24 -24 -24 -24 -24 -24 -24 -24 -24 -24 -24 -24 -24 -23
-22 -22 -23 -24 -24 -25 -25 -26 -26 -26 -26 -26 -26 -27 -27 -26 -26 -26 -26 -27 -27 -26 -26 -26 -26 -26 -26 -26 -26 -26 -25 -25 -25 -25 -25 -25 -26 -26 -26 -26 -26 -26 -26
-24 -25 -25 -25 -26 -27 -27 -27 -27 -27 -27 -28 -28 -27 -27 -27 -26 -27 -28 -27 -27 -27 -27 -27 -27 -27 -27 -27 -27 -26 -26 -26 -26 -27 -27 -28 -28 -29 -29 -29 -29 -29 -29
-26 -27 -27 -27 -28 -28 -28 -28 -28 -28 -29 -29 -28 -28 -28 -27 -28 -28 -28 -28 -28 -28 -29 -29 -28 -28 -28 -28 -27 -27 -27 -27 -28 -28 -29 -29 -30 -30 -30 -30 -31 -31 -31
-28 -28 -28 -28 -28 -28 -28 -28 -28 -28 -29 -29 -29 -28 -27 -28 -29 -29 -29 -29 -30 -30 -29 -29 -28 -28 -28 -29 -28 -28 -28 -28 -29 -30 -30 -31 -30 -30 -30 -30 -30 -30 -31
-27 -27 -28 -28 -29 -30 -30 -30 -31 -30 -30 -30 -29 -29 -30 -30 -30 -30 -30 -30 -30 -30 -30 -29 -29 -28 -28 -29 -29 -28 -28 -29 -30 -30 -30 -30 -30 -30 -30 -30 -30 -30 -30
-30 -30 -31 -31 -31 -32 -32 -32 -32 -31 -31 -31 -31 -31 -31 -31 -31 -31 -31 -31 -31 -31 -30 -29 -29 -29 -29 -29 -29 -29 -29 -30 -30 -30 -30 -30 -30 -30 -30 -30 -29 -29 -30
-31 -32 -32 -32 -33 -33 -33 -32 -32 -32 -32 -32 -32 -32 -32 -32 -32 -32 -32 -32 -31 -31 -30 -30 -30 -30 -30 -30 -30 -30 -30 -30 -30 -30 -30 -30 -30 -30 -30 -30 -30 -30 -30
-32 -33 -33 -33 -33 -32 -32 -33 -33 -33 -33 -32 -32 -32 -32 -32 -32 -32 -32 -32 -31 -31 -30 -30 -30 -30 -30 -31 -31 -30 -31 -31 -31 -30 -30 -30 -30 -30 -30 -31 -31 -31 -31
-33 -33 -33 -33 -33 -33 -33 -33 -33 -33 -33 -33 -33 -33 -33 -33 -32 -32 -32 -31 -31 -31 -31 -31 -30 -30 -31 -31 -31 -31 -31 -31 -31 -31 -30 -31 -30 -30 -30 -30 -31 -31 -32
-34 -34 -34 -34 -34 -33 -33 -33 -33 -33 -33 -33 -33 -33 -33 -33 -32 -32 -32 -32 -32 -32 -31 -31 -31 -31 -31 -31 -31 -31 -32 -31 -31 -31 -31 -31 -31 -31 -31 -31 -31 -31 -32
Height
5753 5752 5751 5749 5747 5745 5743 5742 5741 5739 5738 5738 5737 5737 5738 5739 5740 5740 5741 5742 5743 5745 5746 5747 5748 5750 5751 5752 5753 5754 5755 5756 5757 5759 5760 5761 5762 5764 5766 5768 5770 5771 5772
5747 5746 5744 5742 5740 5739 5737 5735 5733 5731 5730 5730 5730 5729 5730 5730 5730 5731 5732 5733 5734 5735 5737 5738 5739 5740 5742 5743 5744 5744 5746 5746 5747 5748 5750 5751 5753 5753 5755 5758 5760 5762 5763
5740 5739 5737 5735 5733 5731 5729 5728 5726 5724 5723 5722 5721 5721 5721 5722 5722 5722 5723 5723 5724 5725 5726 5727 5729 5730 5731 5731 5733 5734 5735 5736 5737 5737 5739 5740 5741 5743 5744 5746 5749 5752 5754
5732 5730 5729 5727 5725 5723 5721 5719 5718 5717 5715 5714 5713 5713 5713 5713 5713 5713 5713 5714 5714 5715 5716 5717 5718 5719 5720 5720 5721 5722 5723 5724 5726 5727 5727 5728 5730 5731 5733 5734 5736 5740 5743
5723 5721 5719 5718 5716 5714 5712 5711 5709 5708 5707 5706 5706 5705 5704 5704 5704 5704 5704 5704 5704 5704 5704 5705 5706 5707 5708 5709 5709 5710 5711 5712 5713 5714 5716 5717 5718 5720 5722 5722 5723 5726 5730
5714 5712 5710 5708 5706 5704 5702 5701 5699 5698 5698 5698 5697 5695 5695 5694 5694 5693 5693 5693 5693 5693 5693 5693 5694 5694 5695 5696 5696 5697 5698 5699 5700 5702 5703 5704 5706 5707 5709 5711 5711 5711 5714
5705 5702 5699 5698 5697 5694 5692 5691 5690 5689 5688 5687 5686 5685 5685 5684 5683 5683 5682 5682 5681 5681 5681 5681 5681 5681 5682 5682 5682 5683 5684 5684 5685 5687 5688 5689 5691 5693 5694 5697 5700 5700 5699
5694 5691 5688 5686 5685 5683 5681 5680 5679 5679 5678 5677 5676 5675 5674 5674 5673 5672 5671 5671 5670 5669 5668 5667 5666 5666 5666 5667 5667 5667 5668 5668 5668 5669 5671 5672 5674 5676 5677 5679 5683 5687 5688
5682 5679 5677 5674 5672 5671 5670 5669 5668 5667 5666 5665 5664 5663 5662 5661 5660 5659 5658 5657 5656 5655 5654 5653 5651 5651 5650 5649 5649 5649 5649 5650 5650 5650 5651 5652 5654 5657 5659 5661 5663 5666 5671
5669 5666 5664 5661 5659 5658 5657 5656 5655 5654 5653 5652 5651 5649 5648 5647 5646 5644 5643 5641 5640 5639 5637 5636 5635 5633 5632 5632 5630 5630 5630 5629 5629 5629 5630 5630 5631 5633 5635 5638 5641 5644 5648
5654 5652 5650 5647 5645 5644 5643 5642 5641 5640 5638 5637 5635 5634 5632 5631 5629 5628 5626 5624 5623 5622 5620 5619 5616 5615 5613 5612 5610 5609 5609 5608 5607 5606 5607 5606 5607 5608 5609 5610 5614 5618 5622
5638 5636 5634 5632 5631 5629 5627 5626 5624 5623 5621 5619 5617 5615 5614 5613 5611 5609 5607 5605 5604 5602 5600 5598 5596 5593 5591 5589 5588 5587 5585 5584 5583 5581 5582 5581 5580 5582 5582 5584 5586 5589 5592
5622 5619 5616 5615 5613 5612 5610 5608 5606 5604 5602 5601 5599 5597 5595 5593 5592 5591 5589 5586 5584 5582 5580 5577 5574 5572 5570 5568 5566 5565 5562 5561 5559 5557 5556 5555 5554 5556 5556 5558 5560 5561 5564
5604 5602 5599 5597 5595 5593 5591 5590 5589 5587 5584 5582 5580 5579 5577 5575 5573 5571 5570 5568 5566 5564 5561 5558 5555 5551 5549 5546 5544 5541 5540 5538 5536 5534 5533 5531 5531 5531 5531 5532 5533 5534 5536
5587 5583 5580 5578 5577 5576 5574 5572 5571 5569 5566 5564 5563 5561 5559 5558 5556 5554 5552 5549 5546 5542 5539 5535 5531 5528 5526 5523 5521 5519 5518 5517 5515 5513 5512 5510 5508 5508 5508 5509 5509 5508 5510
5567 5565 5563 5561 5560 5557 5555 5554 5553 5551 5550 5548 5547 5545 5543 5541 5539 5536 5533 5529 5525 5521 5516 5513 5510 5508 5506 5503 5501 5500 5500 5498 5496 5494 5491 5489 5487 5485 5484 5483 5484 5484 5484
5548 5545 5544 5543 5541 5540 5538 5537 5536 5534 5533 5531 5529 5527 5525 5522 5519 5514 5510 5507 5504 5501 5497 5494 5492 5490 5487 5486 5484 5482 5481 5479 5476 5473 5471 5469 5466 5463 5461 5459 5458 5459 5458
5530 5528 5527 5527 5526 5524 5523 5521 5519 5518 5516 5514 5510 5507 5505 5502 5499 5495 5491 5488 5485 5482 5480 5477 5476 5475 5472 5471 5469 5467 5465 5462 5459 5455 5452 5449 5446 5443 5440 5439 5438 5436 5434
5514 5513 5513 5512 5511 5509 5506 5505 5502 5500 5497 5493 5490 5488 5486 5484 5479 5477 5474 5471 5469 5467 5466 5465 5463 5463 5460 5458 5455 5453 5450 5446 5441 5437 5433 5430 5427 5424 5421 5420 5420 5418 5418
5498 5497 5496 5496 5493 5491 5488 5486 5483 5481 5477 5473 5470 5469 5466 5464 5461 5459 5457 5456 5455 5454 5453 5452 5451 5449 5447 5444 5440 5436 5434 5430 5425 5421 5417 5412 5409 5408 5405 5402 5401 5402 5399
5482 5481 5478 5476 5475 5473 5471 5468 5465 5462 5459 5455 5452 5450 5449 5448 5446 5445 5444 5443 5442 5441 5440 5439 5437 5436 5432 5428 5424 5421 5418 5414 5411 5408 5404 5399 5394 5391 5388 5385 5384 5383 5381
5466 5465 5464 5462 5461 5459 5455 5452 5449 5445 5441 5439 5437 5436 5435 5434 5433 5432 5431 5430 5429 5428 5427 5426 5424 5420 5418 5414 5411 5407 5402 5398 5396 5393 5390 5386 5381 5376 5372 5368 5366 5364 5364
5454 5452 5451 5448 5447 5444 5440 5436 5433 5430 5428 5426 5425 5423 5422 5421 5420 5419 5418 5417 5416 5415 5414 5413 5411 5408 5404 5399 5396 5393 5388 5385 5382 5378 5375 5372 5368 5364 5360 5355 5353 5350 5350
5443 5441 5438 5434 5432 5428 5424 5422 5419 5417 5416 5414 5412 5411 5410 5409 5408 5407 5406 5405 5403 5402 5400 5399 5397 5395 5391 5387 5384 5379 5374 5370 5367 5363 5361 5358 5355 5352 5349 5345 5341 5338 5336
5430 5427 5424 5421 5418 5415 5413 5412 5408 5406 5404 5402 5400 5399 5398 5397 5395 5393 5392 5391 5389 5388 5386 5383 5382 5380 5378 5374 5370 5366 5362 5359 5356 5352 5348 5344 5340 5338 5336 5334 5331 5327 5324
5417 5415 5412 5410 5407 5405 5403 5401 5398 5396 5394 5391 5389 5388 5386 5385 5383 5382 5379 5377 5376 5374 5371 5369 5368 5367 5364 5362 5358 5353 5350 5347 5343 5340 5336 5332 5329 5327 5325 5322 5319 5315 5313
Wind_Speed
20 20 22 24 25 26 27 27 28 30 31 34 36 36 36 36 36 36 36 36 35 34 34 34 34 34 34 35 36 37 37 37 36 35 34 35 35 35 35 35 34 32 33
24 26 26 26 27 28 27 27 27 28 29 31 33 36 37 37 38 37 37 38 38 38 37 36 35 36 36 37 37 38 38 39 39 39 39 38 39 38 39 38 38 38 36
28 27 27 27 28 29 30 30 29 27 28 29 30 32 33 35 36 37 37 38 38 39 39 39 39 39 40 40 40 41 41 41 42 43 42 42 42 42 42 42 41 41 42
30 31 31 30 30 31 31 31 31 31 30 30 31 31 32 33 33 34 35 37 38 38 39 39 40 41 41 42 42 43 44 44 44 44 45 45 45 45 46 47 46 44 44
33 34 34 34 33 33 33 32 31 31 32 32 32 33 36 38 39 39 39 39 40 40 41 41 42 42 42 43 44 44 45 45 46 47 47 48 48 48 48 49 50 49 47
35 38 38 37 37 36 35 34 33 33 33 34 35 36 36 38 39 40 41 42 43 43 44 45 46 46 46 46 48 48 49 49 49 49 49 49 50 51 50 49 51 52 51
40 41 43 41 39 39 37 36 35 34 34 36 37 39 40 40 40 41 41 42 44 45 46 47 48 49 50 50 51 52 53 54 55 55 55 55 56 56 57 56 55 56 57
45 46 46 47 43 40 38 36 35 36 38 37 38 40 41 43 45 46 47 48 49 50 51 51 52 53 54 55 56 57 58 59 60 60 60 60 60 60 60 60 60 59 59
48 49 49 47 46 41 38 38 38 39 39 40 42 44 45 46 48 50 51 52 53 54 56 57 58 59 60 62 63 64 65 66 67 67 68 68 67 67 67 67 67 65 64
52 52 52 51 48 43 40 41 42 43 45 47 48 49 50 51 53 55 57 58 59 60 62 63 65 66 67 67 68 70 71 72 73 74 74 75 75 76 76 75 75 74 73
58 57 54 52 49 48 46 47 50 53 53 54 55 56 57 58 58 59 61 62 63 63 64 65 68 69 71 72 73 74 75 76 79 80 81 82 82 83 84 84 84 83 82
61 58 55 54 53 54 55 57 59 58 58 59 62 62 62 62 63 63 63 63 64 65 66 67 69 72 74 76 77 79 80 81 82 84 85 86 86 86 87 89 90 89 90
60 58 61 57 60 60 60 60 60 58 61 61 64 65 63 64 64 64 64 63 63 65 67 69 72 75 77 79 79 79 78 79 79 80 81 82 82 82 83 84 85 85 86
61 61 63 63 63 62 62 59 58 57 65 66 64 64 64 64 63 61 62 63 65 68 71 73 74 75 75 74 73 73 72 73 74 74 74 75 76 76 77 78 79 81 82
64 64 65 63 63 60 60 61 61 61 62 64 64 62 61 60 60 63 67 70 72 72 72 72 73 72 69 68 66 64 63 63 64 66 68 70 72 74 75 76 77 79 80
61 62 63 62 61 61 59 57 56 60 63 62 60 59 58 60 65 71 75 77 76 76 71 67 65 62 59 57 56 56 57 57 59 61 62 64 67 69 70 71 73 76 78
59 61 61 58 56 53 55 56 57 59 58 58 57 58 62 66 71 76 76 73 72 68 64 60 55 51 50 50 50 50 51 52 55 57 60 62 64 65 66 67 69 70 71
54 56 53 50 49 50 53 54 55 54 56 59 63 64 65 69 70 72 73 70 62 56 51 47 44 43 42 41 42 43 46 49 52 54 56 57 58 58 59 60 60 60 61
47 45 48 46 46 49 53 57 59 60 61 63 65 68 68 71 71 68 59 52 47 43 40 39 36 34 37 39 41 43 45 48 50 53 53 53 52 53 53 54 53 55 55
47 47 49 51 52 59 64 65 68 67 64 64 65 66 66 65 57 52 47 42 38 37 36 34 33 34 37 41 43 44 46 47 49 47 47 50 50 48 50 50 49 48 50
58 60 63 63 61 59 55 54 55 58 60 58 58 56 53 49 45 42 39 37 37 37 37 35 37 39 41 44 45 45 46 48 44 43 45 47 49 50 50 51 50 48 48
54 52 52 53 53 50 48 49 52 53 51 48 45 43 40 37 36 35 36 37 37 39 39 39 42 44 45 46 46 46 46 46 43 42 43 44 46 48 47 46 45 46 47
46 46 48 46 43 43 46 48 47 43 41 40 40 39 38 35 35 36 37 40 40 41 42 43 45 45 45 44 46 47 46 43 41 41 42 42 41 36 38 39 40 40 39
41 43 45 46 45 42 38 36 36 37 37 36 36 36 37 38 40 41 41 42 42 42 43 42 41 40 42 42 44 45 43 42 42 42 43 42 34 34 35 36 38 40 40
44 46 45 40 36 37 37 37 37 37 37 37 37 37 36 37 39 39 40 40 40 40 40 42 42 41 41 41 42 42 40 39 42 42 42 40 36 33 33 32 32 35 36
46 38 35 36 37 37 34 32 33 34 34 35 35 36 37 38 39 39 41 42 42 42 42 44 45 44 42 41 40 39 38 38 40 38 38 36 34 32 31 30 32 33 33
Wind_Direction
295 301 304 303 299 296 294 290 282 273 270 266 266 266 267 269 268 266 265 266 266 266 266 266 265 264 264 264 264 266 268 269 270 269 267 265 264 262 258 255 256 257 258
293 297 300 301 298 294 289 287 284 277 273 272 270 269 267 266 267 268 268 268 267 267 267 266 265 265 264 264 263 263 265 267 267 267 267 265 264 263 262 260 256 256 257
295 296 297 301 300 294 287 285 282 280 275 270 269 270 271 270 268 268 268 267 268 268 268 267 266 266 265 264 263 264 263 264 265 267 266 265 264 262 260 261 259 255 254
295 295 296 299 300 295 288 282 279 277 274 270 269 270 271 270 269 268 269 269 269 269 269 269 268 267 266 265 264 263 263 263 262 263 264 264 263 263 264 261 258 257 255
295 295 296 298 300 298 290 285 280 275 274 276 275 273 271 270 270 269 269 269 269 269 269 269 268 268 268 267 267 266 264 263 264 263 262 262 263 263 263 266 266 263 258
297 297 296 299 300 298 289 283 278 275 273 273 274 273 273 272 271 271 271 271 271 271 271 271 271 270 269 268 267 267 267 266 265 264 263 262 261 261 260 260 262 264 262
299 298 297 297 298 293 286 281 277 273 272 273 272 273 272 270 269 270 272 273 274 275 275 275 275 274 273 272 271 270 269 268 267 265 264 262 261 261 260 259 257 259 261
299 300 300 298 296 292 282 276 274 273 274 274 275 274 273 272 272 272 274 275 275 275 274 273 273 273 273 273 272 271 270 270 269 268 267 266 264 262 261 260 258 256 256
299 300 299 299 295 289 279 275 276 274 273 274 277 275 273 271 271 272 273 273 274 274 273 272 272 272 272 271 271 271 270 271 270 269 269 267 265 263 262 261 260 258 253
297 296 295 295 293 289 282 279 279 279 277 277 277 276 273 271 271 271 272 273 274 275 274 272 272 272 273 273 274 274 273 273 272 271 270 269 269 267 265 262 260 258 257
293 292 291 290 289 288 284 281 282 282 281 279 277 276 276 274 273 273 273 273 274 275 274 273 272 272 272 273 274 274 273 272 272 272 271 271 269 268 268 267 266 263 260
290 289 286 285 283 282 283 283 283 282 281 278 279 280 280 278 277 277 277 278 278 278 277 276 276 275 276 276 276 276 275 275 274 273 273 274 273 272 271 270 269 268 266
289 288 286 284 282 283 282 281 281 280 277 278 279 280 279 280 280 279 279 279 278 278 277 276 276 277 279 279 279 279 278 277 276 276 275 274 273 273 272 271 271 269 268
283 282 280 279 280 280 279 279 278 274 276 277 278 278 278 279 280 280 279 280 280 281 280 280 280 280 281 280 279 277 276 275 274 273 273 273 272 271 271 270 269 268 267
280 279 278 278 277 277 275 274 271 271 270 274 276 277 279 280 280 279 282 283 285 287 286 283 282 281 280 279 278 276 276 275 274 274 273 272 272 271 270 269 269 268 267
277 276 276 276 275 274 274 272 269 266 269 272 273 276 280 281 283 285 285 285 286 287 287 287 285 282 279 278 278 277 277 276 275 275 275 275 274 273 272 271 270 269 268
277 276 275 274 273 268 265 265 265 265 267 270 274 276 277 280 287 288 287 287 287 287 287 283 280 280 280 281 282 281 281 281 280 280 280 279 278 277 276 275 274 272 269
268 267 270 272 265 263 263 264 267 271 272 273 275 280 283 288 289 287 286 286 285 282 279 279 280 281 282 283 284 284 284 285 284 284 283 282 281 279 278 277 274 272 271
253 255 264 262 263 267 270 272 274 276 278 279 280 284 285 286 287 286 283 280 277 275 275 276 277 280 285 287 288 288 289 290 289 288 286 285 284 282 279 276 275 273 271
250 259 265 266 270 271 272 275 277 280 283 284 285 285 287 285 282 279 278 275 272 271 269 269 276 284 288 291 292 293 294 292 291 288 288 287 284 280 281 280 277 274 272
264 269 274 281 285 285 284 281 280 282 282 283 283 282 280 278 275 274 271 268 269 268 267 272 280 284 292 296 295 296 295 292 288 286 286 286 286 285 283 281 278 275 272
270 274 279 283 286 285 285 283 285 286 283 282 279 275 273 274 272 270 271 273 272 271 273 276 282 289 292 293 294 296 293 291 290 286 287 287 286 286 285 283 279 273 271
271 285 287 287 288 285 285 283 285 284 282 279 276 274 272 273 273 274 274 274 273 273 275 278 284 289 291 292 294 295 292 289 289 286 288 289 291 283 284 284 283 281 278
275 283 287 288 289 291 289 288 288 285 283 282 280 278 276 275 274 275 275 275 277 278 281 284 287 289 290 289 293 293 292 292 293 289 289 293 285 281 282 283 284 284 281
284 289 293 294 293 293 292 290 288 287 286 284 282 281 279 277 277 277 278 279 280 282 285 287 289 291 290 290 292 289 287 286 290 288 290 292 288 288 288 287 284 283 282
289 290 290 294 296 298 299 298 293 290 288 286 285 284 283 282 281 282 283 283 284 285 287 287 289 291 289 288 290 285 285 286 288 287 290 288 283 284 285 286 287 287 285